Regional Weather Roundup
Issued by NWS

Home | Current Version | Previous Version | Graphics & Text | Print | Product List | Glossary Off
Versions: 1 2 3 4 5 6 7 8 9 10 11 12 13 14 15 16 17 18 19 20 21 22 23 24 25 26 27 28 29 30 31 32 33 34 35 36 37 38 39 40 41 42 43 44 45 46 47 48 49 50

856
ASUS43 KMKX 271600
RWRWI

WISCONSIN REGIONAL WEATHER ROUNDUP
NATIONAL WEATHER SERVICE MILWAUKEE/SULLIVAN WI
1100 AM CDT WED JUL 27 2016

NOTE: "FAIR" INDICATES FEW OR NO CLOUDS BELOW 12,000 FEET WITH NO
SIGNIFICANT WEATHER AND/OR OBSTRUCTIONS TO VISIBILITY.

WIZ001-002-006>008-014>016-023>028-271700-
NORTHWEST WISCONSIN

CITY           SKY/WX    TMP DP  RH WIND       PRES   REMARKS
SUPERIOR ARPT  LGT RAIN  64  61  90 E12G18    30.00S
ASHLAND        CLOUDY    69  65  86 N10       30.01S
HAYWARD        LGT RAIN  68  65  90 CALM      30.02R
SIREN          CLOUDY    70  68  94 SE3       29.99F
CUMBERLAND     CLOUDY    70  64  83 SE7       30.01S
RICE LAKE      PTSUNNY   71  63  75 SE7       30.02F
CHETEK         CLOUDY    71  65  82 S3        30.02R
LADYSMITH      CLOUDY    69  65  88 SE6       30.03S
EAU CLAIRE     NOT AVBL
MENOMONIE      CLOUDY    78  72  82 E5        30.00F HX  80
NEW RICHMOND   CLOUDY    76  69  80 E6        29.98F
OSCEOLA        CLOUDY    76  71  86 SE6       29.99F
$$

WIZ003>005-009-010-017-018-271700-
NORTH CENTRAL WISCONSIN

CITY           SKY/WX    TMP DP  RH WIND       PRES   REMARKS
MANITOWISH WTR CLOUDY    66  66 100 E8        30.01F
ARBOR VITAE    LGT RAIN  67  65  93 NE5       30.02F
WOODRUFF       LGT RAIN  67  65  93 NE5       30.02F
RHINELANDER    CLOUDY    67  64  90 E5        30.05F
EAGLE RIVER    LGT RAIN  67  66  99 CALM      30.04R
LAND O LAKES   RAIN      65  65  97 CALM      30.06R
PHILLIPS       CLOUDY    67  65  94 S5        30.02R
TOMAHAWK       CLOUDY    66  64  93 CALM      30.04R
MEDFORD        CLOUDY    66  66 100 SE3       30.03S
MERRILL        LGT RAIN  65  65 100 SE5       30.04F
$$

WIZ029-030-035-036-043>047-271700-
CENTRAL WISCONSIN

CITY           SKY/WX    TMP DP  RH WIND       PRES   REMARKS
WAUSAU         CLOUDY    68  64  87 E3        30.03S
MOSINEE        SUNNY     70  68  94 NE9       30.05R
MARSHFIELD     CLOUDY    77  65  66 NE8       30.03F
STEVENS POINT  TSTM      65  64  96 E9        30.04R
WAUPACA        PTSUNNY   82  67  61 S3        30.01S HX  84
WAUTOMA        MOSUNNY   82  71  69 NW3       30.01S THUNDER HX  86
WISC RAPIDS    CLOUDY    75  62  64 NE14      30.04S
CAMP DOUGLAS   NOT AVBL
$$

WIZ011>013-019>022-031-037>040-048>050-271700-
NORTHEAST WISCONSIN

CITY           SKY/WX    TMP DP  RH WIND       PRES   REMARKS
ANTIGO         LGT RAIN  64  63  98 CALM      30.05F
SHAWANO        CLOUDY    76  65  69 N5        30.05R
OCONTO         CLOUDY    72  69  90 NW6       30.02R
STURGEON BAY   PTSUNNY   77  66  68 W7        30.03R
GREEN BAY      PTSUNNY   81  69  67 NW6       30.02R HX  84
MANITOWOC      NOT AVBL
APPLETON       PTSUNNY   79  63  57 VRB6      30.01R HX  80
CLINTONVILLE   CLOUDY    77  63  61 N10       30.03R
OSHKOSH        SUNNY     83  68  60 SW6       30.00S HX  86
$$

WIZ032>034-041-042-053>061-271700-
SOUTHWEST WISCONSIN

CITY           SKY/WX    TMP DP  RH WIND       PRES   REMARKS
LA CROSSE      SUNNY     84  68  58 VRB3      30.00S HX  87
SPARTA         MOSUNNY   80  69  68 CALM      30.02F HX  83
VIROQUA        SUNNY     80  65  60 W3        30.04F HX  81
BOSCOBEL       MOSUNNY   83  68  60 W9        30.03S HX  86
PRAIRIE DU CHI SUNNY     80  66  61 S3        30.02F HX  82
PLATTEVILLE    SUNNY     79  70  74 CALM      30.05S HX  82
$$

WIZ056-057-062-063-064-067-068-271700-
SOUTH CENTRAL WISCONSIN

CITY           SKY/WX    TMP DP  RH WIND       PRES   REMARKS
REEDSBURG      SUNNY     80  70  70 NW3       30.02F HX  84
BARABOO/DELLS  SUNNY     81  67  63 W8        30.03S HX  84
LONE ROCK      NOT AVBL
MINERAL POINT  SUNNY     81  68  65 W3        30.06R HX  83
MADISON        PTSUNNY   83  68  60 W3        30.02R HX  86
MIDDLETON      SUNNY     83  68  60 NW5       30.03S HX  86
WATERTOWN      MOSUNNY   80  71  72 W3        30.01F HX  84
MONROE         SUNNY     81  63  54 CALM      30.04S HX  82
JANESVILLE     MOSUNNY   82  66  57 W6        30.02R HX  85
$$

WIZ051-052-058>065-066-070>072-271700-
SOUTHEAST WISCONSIN

CITY           SKY/WX    TMP DP  RH WIND       PRES   REMARKS
MILWAUKEE      PTSUNNY   86  68  54 NW5       30.00S HX  89
WAUKESHA       MOSUNNY   81  64  57 W7        30.03S HX  82
MILWAUKEE/TIMM MOSUNNY   84  63  48 W8        30.01S HX  85
RACINE         SUNNY     85  67  54 W7        30.02S HX  87
BURLINGTON     SUNNY     83  65  54 NW6       30.02S HX  85
KENOSHA        MOSUNNY   85  67  54 W6        30.01S HX  87
FOND DU LAC    MOSUNNY   83  71  67 SW7       30.01R HX  87
SHEBOYGAN      MOSUNNY   84  68  58 VRB5      30.00R HX  87
WEST BEND      SUNNY     82  68  61 W7        30.01S HX  85
JUNEAU         SUNNY     80  69  70 SW7       30.03R HX  83
$$

LSZ147-162-271700-
LAKE SUPERIOR

STATION/POSITION TIME  TEMP    WIND        PRES    WAVE
                       AIR SEA DIR/SP/G            HT/PER
                 (UTC) (F)     (DEG/KT/KT) (MB)    (FT/S)
W MID LAKE BUOY  1450   62 60   30/ 12/ 12 1016.2R   1/ 3
DEVILS ISLAND    1500   64      60/ 19/ 22 1016.5F
PORT WING        1500   67      40/ 17/ 19 1015.9
SAXON HARBOR     1540   70      70/  3/  9 1015.6R
$$

LMZ867-665-643>646-271700-
LAKE MICHIGAN

STATION/POSITION TIME  TEMP    WIND        PRES    WAVE
                       AIR SEA DIR/SP/G            HT/PER
                 (UTC) (F)     (DEG/KT/KT) (MB)    (FT/S)
CHAMBERS ISLAND  1500   76      CALM  /  5 1015.2F
S GREEN BAY BUOY 1500   74 75  310/  4/  4   N/A
N MID LAKE BUOY  1450   70 70  280/  8/ 10 1014.5R   1/ 4
NORTHPORT PIER   1500   74     290/  6/ 12 1015.6R
SISTER BAY       1536   77     340/  7/  9   N/A
ALGOMA LAKESHORE 1413             CALM       N/A
KEWAUNEE LAKESHO 1500   76     120/  2/  2 1015.1R
SHEBOYGAN LAKESH 1500   71     150/  4/  4 1015.5S
PORT WASHINGTON  1500   81     100/  1/  2 1016.3
ATWATER BUOY     1500   71 58  130/  2/  4 1017.5S
MILWAUKEE LAKESH 1510   74     120/  3/  4   N/A
S MID LAKE BUOY  1450   75 75  230/  6/  8 1015.3S   0
KENOSHA   LAKESH 1500   79      CALM  /  4 1015.6F
$$

TC  - TEMPERATURE IN CELSIUS
VSB - VISIBILITY IN STATUTE MILES
WCI - WIND CHILL INDEX
HX  - HEAT INDEX





USA.gov is the U.S. government's official web portal to all federal, state and local government web resources and services.